Change the Weather History Date:

Saturday, February 1, 2014

  Actual Average Record
Temperature  
Mean Temperature 42 °F 29 °F  
Max Temperature 53 °F 37 °F 66 °F (1877)
Min Temperature 31 °F 21 °F -4 °F (1971)
Degree Days  
Heating Degree Days 23 36  
Month to date heating degree days 23 36  
Since 1 July heating degree days 3460 3345  
Cooling Degree Days 0 0  
Month to date cooling degree days 0 0  
Year to date cooling degree days 0 0  
Moisture  
Dew Point 27 °F    
Average Humidity 57    
Maximum Humidity 78    
Minimum Humidity 35    
Precipitation  
Precipitation T in 0.09 in 1.07 in (1915)
Month to date precipitation T 0.09  
Year to date precipitation 2.18 2.79  
Snow  
Snow T in 0.40 in 8.40 in (1881)
Month to date snowfall T 0.4  
Since 1 July snowfall 42.3 22.9  
Snow Depth 2.00 in    
Sea Level Pressure  
Sea Level Pressure 30.04 in    
Wind  
Wind Speed 4 mph (SSE)    
Max Wind Speed 10 mph    
Max Gust Speed 13 mph    
Visibility 10 miles    
Events Rain , Snow    
T = Trace of Precipitation, MM = Missing Value Source: NWS Daily Summary

Daily Weather History Graph

Daily Weather History Graph

Search for Another Location

Airport or City:

Trip Planner

Search our weather history database for the weather conditions in past years. The results will help you decide how hot, cold, wet, or windy it might be!

Date:

Astronomy

Feb. 01, 2014 Rise Set
Actual Time 7:30 AM EST 5:39 PM EST
Civil Twilight 7:01 AM EST 6:07 PM EST
Nautical Twilight 6:28 AM EST 6:40 PM EST
Astronomical Twilight 5:56 AM EST 7:12 PM EST
Moon 8:18 AM EST 8:13 PM EST
Length of Visible Light 11h 06m
Length of Day
10h 08m
Waxing Crescent, 5% of the Moon is Illuminated
Feb 1
Waxing Crescent
Feb 6
First Quarter
Feb 14
Full
Feb 22
Last Quarter
Mar 1
New

Hourly Weather History & Observations

Time (EST) Temp. Windchill Dew Point Humidity Pressure Visibility Wind Dir Wind Speed Gust Speed Precip Events Conditions
12:51 AM 33.1 °F - 27.0 °F 78% 30.18 in 10.0 mi Calm Calm - N/A   Overcast
2:51 AM 32.0 °F - 27.0 °F 82% 30.19 in 10.0 mi Calm Calm - N/A   Overcast
3:51 AM 33.1 °F - 26.1 °F 75% 30.18 in 10.0 mi Calm Calm - N/A   Overcast
4:51 AM 33.1 °F - 26.1 °F 75% 30.18 in 10.0 mi Calm Calm - N/A   Overcast
5:51 AM 33.1 °F 28.7 °F 24.1 °F 70% 30.18 in 10.0 mi SSE 4.6 mph - N/A   Overcast
6:51 AM 34.0 °F 31.0 °F 23.0 °F 64% 30.16 in 10.0 mi SSE 3.5 mph - 0.00 in Rain , Snow Light Rain
7:51 AM 35.1 °F 30.1 °F 21.0 °F 57% 30.15 in 10.0 mi SSE 5.8 mph - 0.00 in   Overcast
8:51 AM 36.0 °F 30.3 °F 21.9 °F 57% 30.14 in 10.0 mi SSE 6.9 mph - N/A   Overcast
9:51 AM 37.9 °F 32.7 °F 21.9 °F 53% 30.12 in 10.0 mi SE 6.9 mph - N/A   Overcast
10:51 AM 39.9 °F 34.5 °F 25.0 °F 55% 30.08 in 10.0 mi SE 8.1 mph - N/A   Overcast
11:51 AM 42.1 °F 38.4 °F 27.0 °F 55% 30.05 in 10.0 mi South 5.8 mph - 0.00 in   Overcast
12:51 PM 45.0 °F 42.6 °F 28.9 °F 53% 30.03 in 10.0 mi SSE 4.6 mph - N/A   Overcast
1:51 PM 46.9 °F - 30.0 °F 52% 30.00 in 10.0 mi SSE 6.9 mph - N/A   Overcast
2:51 PM 48.9 °F - 30.0 °F 48% 29.95 in 10.0 mi SE 9.2 mph - N/A   Mostly Cloudy
3:51 PM 51.1 °F - 32.0 °F 48% 29.94 in 10.0 mi SSE 5.8 mph - N/A   Mostly Cloudy
4:51 PM 52.0 °F - 30.0 °F 43% 29.94 in 10.0 mi South 4.6 mph - N/A   Mostly Cloudy
5:51 PM 48.0 °F - 30.0 °F 50% 29.92 in 10.0 mi SE 4.6 mph - N/A   Overcast
6:51 PM 48.0 °F - 30.0 °F 50% 29.92 in 10.0 mi SSE 3.5 mph - N/A   Overcast
7:51 PM 50.0 °F - 27.0 °F 41% 29.91 in 10.0 mi South 4.6 mph - N/A   Overcast
8:51 PM 51.1 °F - 27.0 °F 39% 29.90 in 10.0 mi South 4.6 mph - N/A   Overcast
9:51 PM 52.0 °F - 25.0 °F 35% 29.91 in 10.0 mi SSW 6.9 mph - N/A   Overcast
10:51 PM 52.0 °F - 24.1 °F 34% 29.92 in 10.0 mi Calm Calm - N/A   Overcast
11:51 PM 52.0 °F - 24.1 °F 34% 29.92 in 10.0 mi Calm Calm - N/A   Overcast